Theta_e
320 319 320 320 320 320 321 323 325 325 324 325 326 325 324 325 323 323 324 327 326 323 319 316 315 315 314 314 314 313 313 313 313 313 312 311 311 311 311 311 311 313 315 316 318 319 320 321 322 323 324 325 325 326 327 328 328 329 329 328 328 329 329 327 327 327 326 325 325 325 324 324 325 324 322 321 321 320 320 320 321 323 323 321 320 319 318
321 321 320 319 320 321 322 322 322 322 323 324 324 324 325 325 325 325 325 323 321 318 315 314 313 313 312 311 311 311 311 311 311 310 310 309 308 309 309 310 310 311 313 315 316 317 319 319 321 322 323 323 324 324 325 326 328 329 328 327 328 329 328 326 325 325 325 326 326 326 325 325 325 324 322 322 321 320 320 320 322 323 322 321 320 319 319
321 321 320 319 320 321 322 321 319 320 321 322 323 324 324 325 326 325 322 320 317 314 313 313 312 311 311 310 309 309 308 308 308 308 307 307 306 307 307 308 309 310 313 314 315 316 316 317 318 320 321 322 323 323 324 325 327 327 327 327 328 328 328 326 325 325 326 326 326 325 324 324 324 323 322 322 320 320 320 321 321 322 321 321 321 320 320
320 320 320 319 320 321 321 319 318 319 320 321 322 322 322 324 326 325 323 321 317 313 312 311 310 309 309 308 308 308 307 306 306 306 306 305 305 305 306 307 309 309 310 311 312 313 314 315 317 318 319 321 322 322 323 325 326 326 326 327 327 326 327 327 326 326 326 326 325 324 323 324 324 323 322 321 321 321 322 321 321 321 321 321 320 320 320
320 320 321 320 321 321 321 317 315 317 319 320 321 320 320 321 322 323 322 319 315 312 311 309 307 307 306 306 306 306 306 305 305 305 305 304 304 304 304 306 307 307 308 308 309 311 312 314 315 316 318 320 321 322 323 323 324 325 325 326 326 326 326 327 327 327 326 325 323 323 324 325 324 323 321 321 321 321 321 320 320 320 320 320 320 320 320
319 321 321 320 321 321 318 314 313 315 317 318 319 318 318 318 318 317 316 314 312 311 309 307 305 305 305 305 304 304 305 305 304 304 303 303 303 303 303 305 306 306 307 307 309 310 311 312 313 314 316 318 319 321 322 322 323 324 324 324 324 325 325 326 326 326 326 324 323 324 324 324 323 322 321 321 321 320 318 319 319 320 320 320 320 319 319
318 320 320 321 321 318 314 312 311 312 314 315 316 315 314 315 316 314 312 310 308 307 306 304 304 304 304 304 304 303 303 303 303 303 302 302 302 302 302 304 305 306 306 306 307 309 310 311 312 313 315 317 318 319 320 321 322 322 322 322 322 323 323 323 323 324 324 323 323 324 324 323 323 322 321 321 320 319 318 317 317 316 316 316 316 316 316
317 317 319 321 318 314 312 311 310 311 313 313 314 314 312 312 313 313 310 307 306 305 305 304 304 303 303 303 303 303 303 303 302 302 302 302 302 301 301 303 304 305 305 305 306 307 308 310 311 311 312 314 316 317 318 319 320 320 321 321 321 321 321 320 320 321 321 321 322 322 323 323 322 321 320 320 319 318 317 315 314 314 313 314 314 313 314
317 317 318 316 315 314 312 311 310 310 311 311 313 315 312 311 311 311 308 306 306 305 305 304 304 304 304 303 302 302 302 302 302 302 301 301 301 300 301 302 303 304 304 305 305 306 307 309 309 309 310 311 313 315 316 317 318 319 319 320 319 320 320 319 319 319 320 321 321 321 321 320 319 319 320 319 317 316 314 314 314 313 312 312 312 312 313
316 317 318 316 316 316 312 310 310 310 311 311 311 314 313 310 310 310 308 307 306 306 305 305 305 306 306 304 301 301 301 301 301 301 300 300 301 301 301 301 303 304 304 305 305 306 307 308 307 308 308 309 310 311 312 313 314 316 317 317 318 319 319 319 319 319 319 320 320 321 320 319 318 319 319 319 318 316 315 314 314 313 312 312 312 311 311
314 317 318 317 317 314 310 309 309 310 311 311 312 315 314 310 309 310 308 307 307 306 307 306 306 308 308 304 301 301 301 300 300 299 299 300 300 301 301 301 302 302 304 305 306 307 308 307 306 307 308 309 310 309 308 309 310 312 312 312 314 316 317 318 319 319 319 319 319 319 319 318 318 319 318 318 318 318 317 317 316 316 315 315 314 314 313
315 316 316 314 313 310 307 307 308 310 311 311 313 317 315 309 308 309 308 308 308 307 307 307 305 307 307 303 301 301 301 300 300 300 300 300 300 301 301 302 302 302 303 305 306 307 307 307 307 306 307 308 309 308 307 306 307 308 309 309 310 311 312 314 315 316 317 318 318 318 318 318 318 319 319 319 318 318 318 317 317 316 317 317 317 317 317
314 314 314 312 309 308 306 306 308 309 311 313 314 315 312 309 309 308 307 308 307 306 306 305 303 303 304 302 301 301 301 300 300 300 301 301 301 301 301 301 302 302 302 302 302 303 304 305 306 307 306 307 308 307 307 306 305 305 307 308 309 310 310 311 312 312 313 314 315 316 316 317 317 317 317 317 317 317 317 317 317 316 317 317 318 318 317
314 314 313 311 309 306 305 306 308 308 311 313 311 309 309 309 309 308 307 307 305 304 304 303 302 302 302 301 301 301 300 300 300 299 300 301 301 302 302 302 302 302 302 302 301 301 301 301 303 304 303 302 303 304 305 305 305 305 305 306 307 309 310 311 312 312 313 313 313 313 313 314 314 314 314 314 315 315 315 315 315 315 315 315 314 314 314
313 313 312 312 310 306 305 306 307 307 309 309 307 307 309 309 307 307 306 305 304 303 302 302 301 301 301 300 300 300 299 299 299 298 298 299 300 301 302 302 302 303 303 303 303 302 302 301 301 301 301 300 300 300 300 300 301 303 305 305 305 307 309 310 311 312 312 313 312 312 312 312 313 312 312 312 312 312 312 311 311 311 311 311 311 311 310
311 310 309 308 307 305 304 305 306 305 306 306 307 308 308 307 306 305 305 303 303 302 302 301 301 300 300 299 299 299 299 298 298 297 297 297 298 298 299 300 301 301 302 303 303 303 303 303 302 301 300 300 299 299 299 298 298 299 300 301 303 304 305 306 307 308 308 309 309 309 309 310 310 311 310 310 310 310 310 310 310 310 310 310 311 311 310
308 307 306 306 305 304 304 304 304 304 305 306 307 306 306 305 305 304 303 303 302 301 301 300 300 299 299 299 298 298 298 298 297 297 297 297 297 297 298 298 299 299 299 300 301 302 303 304 304 303 302 300 299 299 298 299 299 299 298 298 299 300 301 301 301 302 303 303 304 305 306 306 307 307 307 307 308 308 309 309 309 309 309 310 311 311 310
306 306 306 306 305 304 303 302 302 303 304 305 305 305 304 304 303 303 302 302 301 300 300 300 299 299 299 299 298 298 298 298 297 297 298 298 298 297 297 298 297 297 298 298 298 299 300 301 302 303 302 301 300 299 297 298 298 298 299 298 298 298 298 299 299 299 299 300 300 301 301 302 302 304 305 305 306 307 307 307 307 307 307 307 308 308 309
307 307 306 306 305 304 303 303 302 302 303 303 303 303 303 302 302 301 301 301 300 300 300 299 299 299 299 299 299 299 299 298 298 298 298 299 298 298 298 298 298 297 297 297 297 297 297 298 298 299 299 299 299 298 298 298 298 298 299 299 299 298 298 298 298 298 298 298 298 299 299 299 299 300 301 301 302 304 305 305 305 305 305 306 306 307 307
306 306 305 305 305 304 304 303 302 301 302 302 302 302 301 301 301 301 301 301 301 301 300 300 300 300 300 300 300 300 300 299 299 299 299 299 299 299 299 299 299 299 299 298 298 298 298 297 298 298 298 298 298 298 298 299 300 299 299 299 300 300 300 299 299 298 298 298 298 297 297 297 297 298 298 298 299 299 300 302 303 303 303 304 305 305 305
305 305 305 305 305 304 304 303 302 301 301 301 301 301 301 301 301 301 301 301 300 300 300 300 300 300 300 300 300 300 300 300 299 299 299 299 299 299 299 299 299 299 299 299 299 299 299 299 299 299 299 299 299 299 300 300 301 301 300 300 300 301 301 301 300 300 300 300 300 299 298 297 297 297 297 297 297 297 297 298 299 299 300 301 302 302 302
305 306 306 305 305 304 304 303 303 302 302 301 301 300 300 300 300 300 300 300 300 300 300 300 300 300 299 299 299 300 300 300 299 299 299 299 299 299 299 299 299 299 299 299 299 300 300 300 300 300 300 299 300 300 300 300 301 301 301 300 299 299 300 301 301 301 301 301 301 301 301 299 298 297 297 296 296 296 296 296 296 297 297 297 298 298 298
305 305 305 305 305 305 304 304 304 303 302 302 301 301 300 300 300 300 300 300 300 300 299 299 299 299 299 299 300 299 300 300 300 299 299 299 299 299 299 300 299 300 300 300 300 300 300 300 300 300 300 300 299 299 299 299 300 300 301 301 300 299 299 300 300 300 301 301 300 301 301 301 300 300 299 297 296 296 296 296 296 296 296 296 296 296 296
305 304 304 304 304 304 304 304 303 303 303 302 302 301 301 300 300 300 299 299 299 299 299 299 299 299 299 299 299 299 300 300 299 299 299 299 299 300 300 299 300 300 300 300 300 300 300 300 300 300 300 300 299 299 299 299 299 298 299 300 301 300 300 300 300 300 300 300 300 300 300 300 300 301 300 299 298 297 297 296 296 296 296 296 296 296 296
305 304 303 303 303 302 302 302 302 302 302 301 301 301 301 300 300 299 299 299 299 299 298 298 297 297 298 298 298 299 299 299 298 298 299 299 299 299 299 299 300 300 300 300 300 300 300 300 300 299 299 299 299 299 299 299 299 298 298 298 299 300 300 300 300 300 300 300 299 300 300 299 299 299 300 300 300 299 299 298 297 296 296 296 296 296 296
304 304 303 303 303 302 302 302 301 301 301 301 300 300 300 300 299 299 299 299 299 298 298 297 297 296 296 297 297 298 298 297 298 299 299 299 299 299 299 299 299 300 300 300 300 299 299 299 299 299 299 299 299 299 299 299 299 299 299 298 299 299 300 300 300 299 299 299 299 299 299 299 299 298 299 300 300 300 300 300 298 296 296 296 296 296 297
304 304 303 303 303 302 302 302 302 301 301 301 301 301 300 300 300 300 300 299 299 299 298 298 298 298 298 297 297 297 297 296 297 298 299 299 299 299 299 299 299 299 300 300 299 299 299 299 299 299 299 299 299 299 299 299 299 299 299 299 299 299 299 299 299 299 299 299 299 299 299 299 299 298 298 299 299 299 300 300 299 297 297 297 297 297 297
303 303 303 303 302 302 302 302 302 301 301 301 301 301 301 301 300 300 300 300 300 299 299 299 299 299 299 298 298 298 298 297 297 298 298 298 299 299 299 299 299 299 299 299 299 299 299 300 299 299 299 299 299 299 299 299 298 298 298 298 299 299 299 299 299 298 298 298 298 299 299 299 299 298 298 299 299 299 299 300 300 299 299 299 298 297 297
303 302 302 302 301 301 301 301 301 301 301 301 301 301 301 300 300 300 300 300 300 300 299 299 299 299 299 298 298 298 298 298 298 298 298 298 298 299 299 299 299 299 299 299 299 299 299 299 299 299 299 299 299 299 299 298 298 298 298 297 297 297 297 298 299 298 298 297 297 298 299 299 299 299 299 298 299 299 299 300 300 300 300 300 299 298 298
302 302 302 301 301 301 301 301 301 300 300 300 301 301 300 300 300 301 300 300 300 300 299 299 299 298 298 298 298 297 297 298 298 298 298 298 298 298 299 298 298 299 299 299 298 299 299 299 299 299 299 299 299 299 299 298 299 298 298 298 297 295 295 297 298 298 298 297 297 298 298 298 298 298 298 298 298 299 299 299 299 299 299 299 300 300 299
302 302 302 301 301 301 301 301 301 300 301 301 301 301 300 301 301 301 300 300 300 300 300 299 299 299 298 298 298 297 297 297 297 297 298 298 298 298 298 298 298 298 298 299 299 298 299 299 299 299 299 299 299 299 299 298 298 298 298 298 297 296 295 296 297 297 297 297 297 297 298 298 298 298 298 298 298 298 298 299 299 299 299 299 299 299 299
302 302 302 301 301 301 301 301 301 301 300 301 301 301 300 300 300 300 300 300 300 300 300 300 299 299 299 298 297 297 297 296 296 296 296 297 297 296 296 296 298 298 298 298 298 298 298 299 299 299 299 299 298 299 299 298 298 299 298 298 298 297 296 296 297 297 297 297 297 297 298 298 298 298 298 298 298 298 298 298 298 299 299 299 298 298 298
302 301 301 301 301 301 301 301 301 301 301 301 301 301 300 300 300 300 300 300 300 300 300 299 299 299 299 298 298 297 296 295 295 296 296 296 295 294 292 293 295 297 298 298 298 298 298 298 299 299 299 299 298 298 299 298 298 298 298 298 298 297 296 296 297 297 297 297 297 297 297 297 298 297 297 298 298 298 298 298 298 298 298 298 297 297 298
302 301 301 301 301 301 301 301 301 301 301 300 300 300 300 300 300 300 300 300 300 300 300 299 299 299 298 298 297 296 294 293 294 295 295 295 294 293 291 291 294 296 297 297 297 298 298 298 298 298 299 299 299 299 299 299 299 298 298 298 298 297 296 296 296 297 297 297 297 296 296 297 297 297 297 297 297 297 297 298 298 298 298 297 297 297 297
302 301 301 301 301 301 301 301 301 300 300 300 300 300 300 300 300 300 300 299 300 300 300 300 299 298 297 297 296 294 293 293 293 294 293 293 293 292 291 292 294 296 296 297 297 298 298 298 298 298 298 298 299 299 299 299 299 298 298 298 297 297 296 296 296 296 297 297 297 296 296 296 296 297 297 297 297 297 297 297 297 298 298 297 296 296 296
302 301 301 301 301 300 300 301 300 300 300 300 300 300 300 300 300 300 300 300 300 300 300 299 297 297 296 295 294 293 293 293 293 293 293 293 293 292 292 293 294 295 295 296 296 297 297 298 298 298 298 298 298 299 299 299 299 298 298 298 297 297 297 297 296 296 296 296 296 296 296 296 296 296 297 297 297 297 297 297 297 297 298 297 296 296 297
301 301 301 301 300 300 300 300 300 300 300 300 300 300 300 300 300 300 300 300 300 300 300 298 296 296 295 294 293 294 294 294 294 293 293 293 293 293 293 292 293 293 294 295 295 296 296 297 297 298 297 297 298 298 298 298 298 298 298 298 297 297 297 297 297 296 296 296 296 296 296 296 296 296 297 297 297 297 297 297 297 297 297 297 297 297 297
300 301 301 301 300 300 300 300 300 300 300 300 300 300 300 300 300 300 300 299 299 300 299 297 295 295 294 294 294 295 296 295 295 295 294 294 294 294 294 293 293 294 295 295 296 296 297 297 297 297 297 297 297 298 298 298 298 298 298 298 298 297 297 297 297 297 296 296 296 296 297 297 296 296 297 297 296 296 297 297 297 297 297 297 297 297 297
300 300 300 300 300 300 300 300 300 299 299 300 300 300 300 299 299 299 299 299 299 299 299 298 296 296 296 296 297 297 297 296 296 296 296 296 296 296 296 295 295 295 295 295 296 296 296 296 296 296 297 297 298 298 298 298 298 297 297 298 298 297 297 297 297 297 297 296 296 296 296 297 297 297 297 296 296 296 296 296 296 296 296 296 296 296 296
300 300 300 300 300 300 300 300 300 299 299 299 299 300 300 299 299 299 299 299 299 299 298 298 298 297 298 298 297 297 297 297 297 297 297 297 296 296 296 296 297 296 296 295 295 295 295 295 294 294 296 297 298 298 298 298 298 298 297 298 298 298 297 297 297 297 297 297 296 295 295 296 296 296 297 296 296 296 296 296 296 296 296 296 296 296 296
300 300 300 300 300 300 300 300 300 300 299 299 300 300 300 300 300 299 299 299 299 299 298 298 298 298 298 298 298 298 298 298 297 297 297 297 297 296 296 297 297 297 296 296 295 295 294 294 294 293 294 297 298 298 298 298 298 298 298 298 298 298 297 297 297 297 296 296 296 296 296 295 295 295 296 296 296 296 296 296 296 296 296 296 296 296 296
300 300 300 300 300 300 299 299 299 299 299 300 300 300 300 300 300 299 299 299 299 299 299 298 298 298 298 298 298 298 298 298 298 298 298 297 297 297 297 297 297 297 296 296 295 294 295 296 296 295 295 296 298 298 298 298 298 298 298 298 298 297 297 297 297 296 296 296 296 296 296 296 296 295 295 296 296 296 296 296 296 296 296 296 296 296 295
300 300 300 300 300 300 300 300 300 300 299 300 300 300 300 300 300 300 300 300 299 299 299 299 299 298 298 298 298 298 298 298 298 298 298 298 298 298 298 297 297 297 297 296 294 294 296 297 297 297 296 296 297 298 298 298 298 298 298 298 297 297 297 297 297 296 296 296 296 296 296 296 296 296 296 295 295 296 296 296 296 296 296 296 296 296 295
300 300 300 300 300 300 300 299 299 300 299 300 300 300 300 300 300 300 300 299 299 299 299 299 299 299 299 299 298 299 299 299 299 299 298 299 298 298 298 298 297 297 297 295 294 294 296 297 297 297 297 297 296 297 297 298 298 298 298 298 298 297 297 297 297 297 296 296 296 296 296 296 296 296 296 295 295 296 296 296 296 296 296 296 296 296 295
300 300 300 300 299 299 299 299 300 300 299 299 300 299 299 299 300 300 300 300 299 299 299 299 299 299 299 299 299 299 299 299 299 299 299 299 298 298 298 298 297 297 297 295 294 295 296 297 297 296 296 296 296 296 296 297 298 298 298 297 297 297 297 297 297 297 296 296 296 296 296 296 296 296 296 295 295 295 296 296 296 296 296 296 296 296 295
300 300 299 299 299 299 300 300 300 300 299 299 299 299 299 299 299 299 300 300 300 300 300 300 299 300 299 299 299 299 299 299 299 299 299 299 298 298 298 298 297 297 296 296 295 295 296 296 296 294 293 294 295 296 296 296 297 297 297 297 297 297 297 297 297 297 296 296 296 296 296 296 296 296 296 296 296 295 295 295 296 296 296 296 296 296 295
300 300 299 299 299 300 300 300 299 299 299 299 299 299 299 299 299 299 300 300 300 300 300 300 300 300 299 299 299 299 299 299 299 299 299 298 298 298 298 298 298 297 297 296 296 296 295 295 295 293 292 292 293 294 295 296 296 297 297 297 297 297 297 297 296 296 296 296 296 296 296 296 296 296 296 296 296 295 295 295 295 295 295 296 296 296 295
299 300 300 299 299 299 299 299 299 299 299 299 299 299 299 299 299 299 300 300 300 300 300 300 300 300 300 299 299 299 299 299 299 299 299 299 299 298 298 298 298 298 297 297 296 296 296 295 295 294 293 292 292 291 293 295 296 296 296 297 297 296 296 296 296 296 296 296 296 296 296 296 296 296 296 296 295 295 295 295 295 294 294 295 295 295 295
299 299 299 299 299 299 299 299 299 299 299 299 299 299 299 299 299 299 299 299 300 300 300 300 300 300 300 299 299 299 299 299 299 299 299 299 299 299 299 298 298 298 297 297 296 296 296 296 296 295 295 294 293 291 291 293 295 295 295 296 296 296 296 296 295 295 294 294 295 295 295 296 295 295 295 296 295 295 295 295 295 295 294 293 294 294 295
300 299 299 299 299 300 299 299 299 299 299 299 299 299 299 299 299 299 299 299 299 300 300 300 300 300 299 299 299 299 299 299 299 299 299 299 299 299 299 298 298 298 297 297 297 296 296 296 295 295 295 295 294 293 292 292 293 294 294 294 295 295 295 295 295 295 294 294 294 294 295 295 295 295 295 295 295 295 295 295 295 295 294 293 292 293 293
299 299 299 299 299 299 299 299 299 299 299 299 299 299 299 299 299 299 299 299 299 299 299 299 299 299 299 299 299 299 299 299 299 299 299 299 299 298 298 298 298 298 297 297 297 297 296 296 296 296 295 295 295 294 293 293 293 293 293 294 294 294 295 295 294 294 294 293 293 292 293 294 294 295 295 295 294 294 295 295 295 295 295 294 293 292 291
299 299 299 299 299 298 299 299 299 299 299 299 299 299 299 299 299 298 298 298 299 299 299 299 299 299 299 299 299 299 299 299 298 298 298 298 298 298 298 298 298 298 297 297 297 297 297 296 296 296 295 295 295 295 294 294 294 294 294 294 294 294 295 295 294 294 293 292 291 290 290 292 294 294 294 294 294 294 294 295 295 295 295 294 293 291 290
Wind_Speed
6 4 4 6 8 7 6 10 12 11 13 14 11 8 6 3 4 4 6 7 10 9 7 7 7 7 8 9 10 11 11 12 11 11 13 16 18 19 20 20 19 19 18 16 15 13 11 10 10 11 11 9 5 5 5 3 6 9 7 8 14 20 25 27 27 27 26 25 25 23 22 21 19 16 16 16 16 15 14 15 15 12 11 12 11 10 10
4 4 2 2 2 2 5 10 13 12 12 11 9 8 8 8 7 7 10 11 10 7 6 7 8 9 11 11 12 13 13 13 12 13 15 17 19 20 19 18 19 19 17 16 15 13 11 10 10 11 13 13 11 8 7 4 7 10 7 9 16 21 25 27 27 26 26 25 26 24 23 21 19 18 17 16 16 15 14 16 15 12 12 12 10 10 11
4 3 5 6 3 3 5 10 14 13 7 5 6 8 7 7 8 9 11 11 7 5 6 8 9 10 12 13 13 14 14 14 14 15 16 17 18 19 18 17 17 17 17 17 16 15 14 12 10 10 12 12 12 11 8 7 12 14 12 14 16 17 22 29 31 30 28 26 26 25 24 22 20 19 19 17 17 16 16 16 14 13 13 12 10 10 11
4 2 6 8 2 6 6 10 14 12 5 2 5 8 7 5 5 8 6 4 4 5 7 9 12 12 13 14 14 13 14 15 16 16 16 17 17 17 18 17 16 17 18 18 18 17 16 14 12 11 11 10 11 13 12 11 15 17 16 16 15 15 21 28 32 31 29 27 27 27 26 25 23 21 19 18 18 18 18 18 17 16 16 15 13 13 14
3 2 5 6 1 5 2 6 9 10 8 6 7 8 9 9 3 4 3 3 5 7 7 8 10 11 13 14 14 14 13 14 16 16 16 16 16 17 17 16 16 17 18 19 19 18 16 15 15 15 13 12 13 15 14 11 11 14 15 15 14 15 18 24 28 29 28 27 25 26 27 27 25 24 22 20 19 19 20 20 19 18 18 17 15 14 13
3 2 4 5 2 4 1 3 6 9 9 8 10 10 11 10 8 6 7 8 8 8 8 8 9 11 14 15 15 15 14 14 15 15 16 16 16 17 17 17 16 18 19 20 20 19 17 16 16 16 16 16 16 17 16 11 9 11 15 16 17 17 18 21 24 25 25 25 23 23 25 26 26 27 26 23 20 19 19 19 18 17 16 15 13 11 9
1 3 3 1 2 2 2 4 7 9 7 8 12 12 12 11 9 10 11 10 9 10 12 12 13 16 17 18 18 17 16 15 15 15 17 17 16 18 19 18 17 18 21 22 21 20 20 19 18 19 20 19 17 17 17 16 14 15 16 17 18 20 19 18 18 19 21 23 23 22 22 23 24 26 26 23 21 19 19 18 17 15 13 12 11 7 6
2 2 3 2 2 3 5 7 9 9 6 6 7 8 10 11 8 9 10 8 9 12 13 13 15 18 19 21 21 19 16 16 15 15 16 16 16 17 19 19 18 18 20 21 21 20 20 20 22 23 23 22 20 19 19 18 19 20 20 19 18 19 18 17 16 17 18 20 20 19 19 20 21 22 22 22 20 21 20 19 17 14 10 7 6 4 3
2 2 2 4 5 4 5 6 6 6 4 4 4 3 6 9 8 8 9 8 9 11 12 12 13 14 16 16 16 17 17 16 15 15 15 14 15 16 17 19 17 16 17 19 19 19 19 20 22 23 23 22 21 22 22 21 20 20 21 21 20 19 18 17 16 17 17 18 18 18 19 19 18 18 19 20 20 21 21 18 14 11 7 5 5 5 5
1 1 4 4 5 4 5 5 5 6 3 4 5 0 3 6 8 8 8 8 9 9 10 10 10 7 6 8 8 12 14 13 14 14 14 14 15 16 17 18 17 15 16 17 18 18 20 21 21 22 22 23 23 25 26 25 23 22 22 21 20 20 18 17 17 16 16 16 15 15 15 15 16 16 17 18 18 19 18 16 12 12 13 14 15 15 14
1 1 2 2 2 3 4 7 7 8 6 5 4 1 3 5 6 7 7 8 8 8 8 7 3 2 1 3 5 8 10 11 13 14 15 16 15 16 17 18 18 17 16 15 15 17 19 21 21 21 21 23 25 27 27 26 26 26 25 24 22 22 21 19 17 16 15 14 14 13 14 15 15 14 14 14 13 13 13 11 9 10 13 15 16 17 17
2 0 1 3 3 3 6 9 10 11 8 4 3 2 3 4 5 6 6 7 9 7 6 6 5 5 3 6 7 7 8 10 13 14 15 16 16 16 16 16 16 17 16 16 17 18 19 19 19 20 20 22 24 26 26 25 25 24 24 23 22 22 23 23 21 18 16 14 13 13 14 14 13 12 12 11 10 9 8 7 5 5 6 7 7 9 11
4 4 4 3 3 2 8 13 13 12 8 2 0 1 1 3 4 7 8 9 11 11 11 11 10 10 12 14 11 9 9 10 12 13 13 14 15 16 16 16 15 15 16 18 19 20 18 16 16 18 19 20 22 22 23 24 24 22 20 18 17 19 21 24 25 24 22 21 20 19 18 17 16 15 13 12 11 10 9 7 7 6 4 4 5 5 5
2 3 4 4 3 4 13 17 14 11 5 1 2 5 3 2 6 9 11 12 13 14 15 16 16 16 17 16 13 12 11 12 13 13 13 13 13 14 15 15 15 15 16 16 17 18 17 15 16 16 16 17 19 18 19 21 20 19 18 16 15 17 19 21 22 23 22 22 22 22 21 21 21 18 15 13 11 11 10 10 9 8 7 6 6 5 4
2 3 4 3 2 7 17 16 8 8 7 1 4 7 4 11 13 13 14 13 13 15 17 17 17 17 17 16 15 15 14 13 13 14 14 14 14 14 14 14 14 14 15 15 15 16 15 15 15 15 15 16 17 17 17 18 15 14 15 15 15 16 17 17 18 19 19 20 20 20 19 19 19 19 16 13 12 11 10 9 9 8 8 7 6 5 3
2 3 4 3 1 7 14 11 5 6 9 6 3 4 11 16 15 15 16 14 14 17 18 17 17 17 17 16 15 15 14 13 13 14 15 16 16 15 15 16 15 15 14 14 14 13 12 12 13 14 15 16 17 17 17 15 13 12 12 12 12 13 13 14 14 14 15 16 16 16 16 16 17 18 16 13 13 12 9 8 8 7 7 7 6 7 6
5 5 4 3 4 7 11 12 10 9 10 13 16 17 18 16 14 17 18 16 16 17 18 18 18 16 16 15 14 14 14 12 12 14 14 16 17 17 16 17 17 16 16 15 14 13 11 10 10 12 13 15 17 19 17 14 13 14 12 10 10 11 11 10 10 10 11 11 12 12 12 13 14 16 15 14 13 13 11 9 9 7 5 4 3 4 5
10 11 9 8 9 11 11 12 12 12 13 16 19 21 20 17 17 18 18 18 19 19 19 19 18 15 14 14 13 13 12 12 12 12 12 13 15 16 17 17 18 17 17 17 17 17 15 13 11 11 13 14 16 19 19 16 14 14 12 11 10 10 10 9 8 8 7 7 7 7 7 8 9 11 12 13 13 13 13 13 12 10 8 7 6 6 6
7 7 9 10 11 11 12 12 14 15 18 20 22 23 24 22 21 22 21 20 21 21 20 20 19 17 15 14 12 11 11 12 12 12 11 11 12 13 16 16 17 18 18 18 19 20 19 17 15 15 16 18 18 17 16 16 15 13 12 12 11 11 11 10 9 8 7 6 5 4 4 4 4 5 5 6 8 9 10 11 11 11 11 11 10 9 9
8 9 13 16 17 16 13 12 13 15 19 23 24 24 24 23 23 22 22 20 19 19 18 17 16 16 15 14 13 11 11 10 10 9 9 9 10 12 13 13 14 16 16 17 18 19 18 18 18 18 18 18 17 15 14 14 13 12 12 12 12 12 12 11 11 9 8 7 7 6 6 5 4 3 3 3 4 6 7 7 9 9 10 11 13 12 11
10 11 15 17 17 17 16 14 14 15 18 22 24 24 23 23 23 22 22 20 18 17 16 15 14 14 14 13 12 11 11 10 9 9 9 8 8 9 10 10 11 12 12 12 14 14 15 15 16 16 15 15 15 14 13 12 11 11 10 9 10 11 11 12 12 12 12 11 9 9 10 9 8 6 6 5 4 4 5 6 7 7 7 9 10 11 10
6 7 11 12 11 10 13 15 15 15 17 20 22 23 23 23 23 22 22 20 19 17 16 15 14 13 13 12 11 10 10 9 8 8 8 7 7 8 8 9 9 9 10 10 11 11 11 12 12 12 12 13 13 12 10 9 9 9 9 9 10 11 11 12 11 11 12 12 10 9 10 11 11 11 10 9 7 5 5 4 4 4 5 5 6 7 7
9 12 15 17 16 14 15 17 18 17 17 18 19 19 20 20 20 19 19 19 18 17 16 14 13 13 13 12 11 9 9 8 8 7 6 6 6 7 7 7 7 8 9 9 9 9 9 10 10 9 10 10 11 11 10 9 8 8 8 9 10 12 12 13 12 10 10 10 10 9 9 9 11 12 12 11 10 9 7 5 4 3 3 2 2 2 3
15 17 18 19 20 19 18 18 18 18 17 16 16 16 16 16 16 16 16 16 15 14 12 11 10 11 10 10 10 10 9 7 6 6 6 6 6 6 6 6 6 6 7 7 7 7 7 8 8 8 8 9 10 11 12 11 10 9 10 9 9 9 10 11 11 11 10 10 9 10 10 8 8 10 11 12 13 13 12 9 7 6 6 5 4 4 3
18 18 19 19 20 21 19 18 18 17 16 16 16 15 14 14 14 13 13 13 12 11 10 9 8 8 7 6 7 8 9 7 5 5 5 4 5 5 5 5 5 5 5 6 6 6 7 7 7 7 8 8 9 9 10 11 12 13 14 12 11 10 10 10 9 9 10 10 9 9 9 8 6 7 8 9 11 13 14 13 12 11 10 10 9 8 8
20 20 19 19 19 19 18 18 18 17 16 16 16 15 14 14 13 12 12 11 10 10 9 9 10 11 11 9 6 5 5 4 5 7 7 4 4 5 5 5 5 4 4 5 5 6 6 6 6 6 7 7 8 9 9 10 11 12 14 15 11 9 9 10 9 8 8 9 9 9 9 9 8 7 7 8 9 9 10 12 14 14 14 13 12 12 11
18 17 17 17 17 16 16 16 16 16 15 15 14 13 12 12 11 11 10 9 8 7 7 8 7 7 9 11 10 10 8 4 3 6 8 6 5 5 4 5 5 4 4 4 4 6 6 5 5 6 7 7 7 8 8 8 8 7 8 11 11 9 8 9 8 6 5 6 7 7 8 7 8 8 8 8 8 8 7 8 10 13 14 13 12 12 12
15 14 13 14 15 16 15 15 15 15 14 13 12 10 10 9 9 8 8 7 7 5 5 6 5 3 4 6 8 10 11 8 5 5 6 5 4 3 3 3 3 3 3 3 3 3 4 4 4 5 6 6 6 7 7 8 8 6 6 7 7 6 6 7 7 7 5 5 7 7 7 6 6 8 9 8 7 8 9 6 4 7 10 12 11 10 11
14 14 14 15 15 15 15 15 14 13 12 11 10 9 9 8 7 6 6 6 6 5 5 5 6 5 5 6 6 6 8 9 7 5 4 4 2 2 2 2 2 2 3 3 2 2 3 3 3 4 4 5 5 5 6 7 7 7 7 7 7 5 3 5 7 7 7 8 9 10 10 9 6 7 8 7 6 7 8 7 5 5 6 7 8 10 11
14 14 14 14 14 13 13 13 12 10 9 9 8 7 7 6 6 6 5 4 4 4 4 4 5 5 5 6 6 6 7 7 6 4 4 3 2 1 1 2 1 1 1 2 1 1 1 1 2 3 3 4 4 4 5 6 6 5 7 10 12 12 7 5 8 7 6 6 8 10 10 8 6 6 7 7 7 8 9 9 8 5 3 5 8 10 10
13 13 12 12 11 11 11 10 9 8 8 7 7 6 6 5 5 5 4 3 2 2 2 2 4 4 4 4 5 5 6 6 5 4 3 2 1 0 1 1 1 2 2 1 0 1 1 1 1 1 2 3 3 3 4 5 5 5 7 8 12 16 12 7 7 8 7 6 7 9 9 8 6 6 6 6 7 6 7 8 7 4 4 8 9 6 6
12 11 11 11 10 10 9 8 7 7 6 5 5 5 5 5 4 3 2 2 1 1 1 1 2 2 2 3 4 4 4 4 4 4 2 2 4 4 3 2 2 3 2 2 1 2 2 3 2 1 1 2 2 3 4 3 4 4 6 6 8 14 14 10 7 6 6 6 7 6 7 7 7 6 6 7 6 4 4 7 7 5 4 6 7 6 7
10 9 9 9 9 8 8 7 6 6 5 5 4 4 4 4 4 3 3 2 1 0 0 1 2 1 1 1 2 3 4 5 4 2 2 4 7 8 6 4 4 5 4 3 3 3 3 4 3 3 2 1 2 3 3 3 4 4 4 4 5 7 9 10 8 6 4 4 5 4 4 6 6 5 5 6 5 3 4 6 6 4 3 2 5 9 11
9 8 8 7 7 7 7 6 5 5 5 5 4 4 4 3 3 3 2 1 1 1 1 1 1 1 1 1 3 6 6 5 3 3 4 6 8 8 7 4 2 5 5 4 5 5 5 5 5 4 3 3 3 3 2 2 3 3 3 4 4 4 6 7 6 4 4 4 5 5 4 4 4 5 6 5 4 5 6 6 6 5 3 3 7 11 12
8 8 7 7 7 6 7 6 5 5 5 4 4 4 4 3 3 3 2 2 2 0 3 4 2 2 3 3 5 6 5 5 5 5 5 6 6 6 5 3 2 4 5 6 6 7 6 6 6 5 4 4 3 3 3 2 2 2 2 2 2 3 6 6 3 4 4 3 3 4 3 1 3 5 6 5 3 4 5 4 5 6 4 4 8 12 12
8 7 7 7 7 6 6 6 5 4 4 4 4 4 4 4 3 3 3 3 2 2 4 3 2 1 1 2 3 4 5 5 6 6 5 4 5 5 4 3 3 4 5 6 6 6 7 8 8 7 7 6 5 4 5 3 1 2 3 2 1 3 5 3 2 3 3 1 1 4 5 2 3 5 6 5 3 2 3 5 6 6 4 3 7 10 10
7 7 7 7 6 5 5 5 5 4 4 4 4 4 4 3 3 3 3 2 1 1 2 3 1 2 2 3 4 4 5 5 6 7 7 6 5 6 5 5 3 2 2 3 3 4 6 8 8 8 8 8 7 7 8 6 3 2 3 2 2 3 4 3 3 3 3 2 4 8 9 6 5 4 4 4 3 3 3 4 5 5 5 4 4 5 5
5 6 6 6 5 5 4 4 3 2 2 3 3 3 3 3 2 2 3 2 1 2 0 2 3 4 3 3 2 2 2 4 5 7 8 8 9 9 8 5 3 2 3 4 3 3 5 7 7 9 10 10 9 9 11 10 8 5 4 3 3 3 2 3 4 2 1 2 5 6 6 5 4 2 1 2 4 4 4 4 5 5 6 5 5 5 6
5 5 5 6 6 5 4 4 3 2 1 2 2 2 2 2 2 2 2 1 1 2 1 1 2 2 1 3 4 6 4 2 5 7 7 8 11 13 12 9 5 3 4 4 3 3 7 9 9 10 10 9 8 9 11 12 11 8 7 5 4 4 3 4 3 3 4 5 5 2 2 1 1 1 1 3 4 4 4 6 7 6 5 5 5 6 6
6 6 6 6 6 5 4 3 2 1 1 0 1 2 1 1 1 1 1 1 1 1 2 2 2 3 3 4 4 5 4 4 7 9 8 7 9 13 15 14 7 3 5 4 3 5 9 12 12 11 9 7 8 10 12 12 11 9 7 6 5 5 5 5 4 5 6 6 4 2 1 2 2 1 1 3 4 3 4 7 8 7 5 5 6 6 5
6 6 6 5 5 4 3 3 2 1 1 0 1 1 1 1 2 2 2 2 2 2 3 3 3 3 3 3 4 4 4 5 6 6 7 8 8 9 13 13 7 3 5 4 6 10 12 11 10 9 7 5 6 9 12 12 11 9 7 6 6 6 6 6 6 5 5 6 5 5 2 3 3 1 2 5 6 4 2 4 6 6 6 6 6 6 4
5 5 5 4 4 3 2 2 2 1 1 1 2 2 2 2 3 3 4 4 4 4 4 4 5 6 5 5 5 5 5 6 6 6 6 8 8 8 8 9 6 2 3 7 11 12 10 9 8 8 6 5 6 9 12 12 10 7 6 6 7 7 6 6 7 6 6 7 7 6 5 5 4 3 2 5 6 6 4 3 4 6 7 6 6 6 5
5 5 4 4 3 3 2 2 2 2 2 2 2 2 2 2 4 5 5 4 5 6 6 6 6 7 7 7 7 7 7 7 7 7 7 8 8 8 6 6 6 6 8 10 11 8 5 6 8 9 8 7 6 9 11 12 9 7 7 8 8 8 7 8 7 7 7 7 8 8 7 6 4 3 4 6 5 6 6 5 5 6 6 7 7 7 7
5 5 5 3 2 2 2 2 2 2 2 2 3 2 3 3 4 4 5 5 5 6 7 7 7 8 8 8 8 9 9 9 8 8 8 8 8 7 6 7 8 9 10 10 9 5 2 5 7 7 8 10 10 10 11 11 9 8 8 9 8 8 9 9 8 8 8 8 8 9 9 8 5 4 6 7 7 6 7 7 7 7 7 8 9 8 7
5 5 4 3 2 2 2 2 1 1 2 3 3 4 4 4 4 4 5 6 6 6 7 8 8 8 8 8 9 9 10 9 9 9 8 7 7 6 5 6 7 8 9 9 7 3 2 7 8 7 7 9 10 10 11 12 10 9 9 9 8 9 9 9 9 9 9 9 9 10 10 10 9 8 8 8 8 8 8 8 8 8 8 9 9 9 8
5 5 4 2 2 3 2 1 1 1 2 3 4 4 5 4 4 4 5 6 6 7 7 8 8 8 8 8 9 9 9 9 9 9 9 8 7 5 4 5 7 9 10 9 6 2 3 7 9 8 8 7 7 7 7 10 11 10 10 10 10 9 9 10 10 11 10 11 11 11 10 11 11 11 10 10 11 11 10 9 10 10 9 9 10 11 10
5 5 4 3 3 2 1 1 1 2 3 3 4 4 4 4 5 5 5 6 6 7 7 7 7 7 7 7 8 8 8 9 10 10 9 9 9 9 9 9 10 10 10 8 5 3 4 6 7 7 7 7 6 6 5 5 7 8 9 10 9 9 9 10 10 10 11 12 12 12 12 12 13 12 11 9 10 12 13 14 14 12 10 9 10 12 14
5 5 4 3 2 1 1 1 3 4 4 3 4 4 4 4 5 5 6 6 7 7 7 7 7 7 7 7 8 8 8 8 9 9 8 7 7 8 8 8 9 9 9 8 7 7 7 6 6 7 8 8 7 7 6 5 6 8 9 9 9 10 10 11 11 12 13 13 13 13 13 14 14 14 13 12 11 12 13 15 16 15 13 12 12 13 15
6 4 3 3 3 3 2 3 4 4 3 2 3 4 4 3 4 5 5 6 6 6 7 7 7 7 7 7 8 8 8 7 8 8 7 6 6 7 7 8 8 8 8 7 6 7 9 8 7 8 10 10 9 9 8 7 8 9 10 10 11 12 12 12 12 13 14 14 14 13 12 12 14 15 15 14 12 12 13 15 18 18 15 13 14 15 16
6 4 3 4 4 3 3 3 4 4 3 2 4 4 4 4 4 5 5 6 5 6 6 6 6 6 7 7 7 7 7 7 8 9 7 6 7 8 8 8 7 6 6 7 7 8 10 10 9 10 12 10 9 9 9 8 8 10 11 11 12 13 14 14 15 15 16 17 17 15 11 10 11 14 15 15 15 14 14 16 19 20 18 15 15 17 19
5 4 4 4 3 3 3 3 4 3 3 3 4 4 4 4 5 5 5 6 6 6 6 6 6 6 6 6 6 6 6 7 9 9 8 7 7 7 7 9 9 9 10 11 10 9 9 10 11 11 11 9 9 10 11 8 7 9 10 11 13 14 14 14 16 17 18 19 20 19 16 14 13 13 14 16 16 15 14 16 19 21 20 18 16 17 19
5 4 4 3 2 2 2 2 3 2 2 3 3 3 3 5 5 5 6 6 6 5 5 6 6 6 6 5 5 5 5 6 7 8 7 7 7 7 7 8 9 9 8 8 8 7 8 10 11 10 9 10 11 12 11 9 8 10 10 10 11 12 13 13 14 15 16 17 17 17 17 18 17 17 17 17 16 15 15 17 19 20 21 20 18 16 16
Wind_Direction
316 333 352 332 329 331 353 16 12 14 20 10 6 23 38 73 121 169 196 157 125 120 110 95 88 83 74 61 46 39 37 32 27 28 30 30 29 29 28 25 24 25 26 25 26 25 23 30 39 40 41 38 13 322 320 307 202 193 183 173 175 170 167 168 166 163 161 159 159 162 162 158 157 155 150 147 148 150 150 146 141 145 154 147 141 150 154
296 302 332 306 314 343 29 38 31 27 23 14 18 32 31 44 81 131 141 118 98 95 97 89 85 84 79 67 51 41 36 30 27 28 29 29 27 25 24 23 23 25 26 25 24 23 21 26 39 48 51 48 39 14 348 20 120 141 139 138 153 162 164 163 164 165 165 162 159 157 154 153 151 146 143 146 150 147 144 142 142 148 148 139 141 152 149
270 260 251 246 208 111 74 49 41 41 30 352 18 37 25 39 76 100 107 103 96 88 93 89 78 74 71 64 54 44 34 28 27 28 29 28 26 24 22 23 28 33 33 30 29 29 29 31 36 50 61 62 53 42 30 67 106 121 133 137 141 150 154 157 164 169 166 162 159 156 153 151 148 147 148 147 143 141 141 142 143 145 142 137 143 152 154
272 262 256 256 175 97 73 47 36 30 31 49 56 44 11 13 110 132 121 107 118 119 106 86 70 63 60 54 49 44 36 31 30 30 29 27 26 25 23 27 37 40 36 34 35 36 38 44 49 53 62 72 75 73 76 97 116 126 135 139 139 143 149 156 163 166 165 162 158 154 152 151 148 147 148 145 144 146 146 144 143 145 149 149 151 161 172
277 0 329 298 187 140 100 37 27 13 22 70 87 65 30 21 63 152 136 97 119 127 115 88 70 61 56 51 45 41 38 36 35 35 32 29 29 29 29 36 45 46 41 41 45 45 43 48 56 62 69 80 92 99 101 104 117 126 131 135 138 142 151 161 165 164 164 163 157 156 157 154 149 147 147 149 153 155 153 152 152 154 159 160 155 158 169
247 93 43 335 266 190 223 18 20 9 20 63 84 67 43 43 61 78 85 95 105 104 94 85 78 71 65 60 53 47 43 41 40 39 37 36 37 40 42 47 52 56 56 53 53 57 57 57 64 71 78 82 90 103 114 119 121 128 132 135 138 140 145 157 164 164 165 163 161 161 161 157 154 152 152 154 155 156 157 159 158 155 156 159 156 151 157
258 132 135 268 271 180 128 57 24 4 10 56 75 64 39 40 71 87 88 89 88 91 95 95 91 84 76 69 60 53 49 47 47 46 43 43 45 45 48 52 57 65 68 61 55 58 64 70 74 77 80 84 87 93 104 115 120 124 129 130 136 143 145 148 154 159 165 167 165 163 162 163 161 155 152 152 151 152 154 151 147 143 140 147 149 143 145
189 191 213 208 146 111 91 62 29 5 357 28 61 70 38 21 46 87 95 98 99 105 109 106 102 95 82 70 60 52 50 50 50 50 47 45 47 47 49 55 58 63 70 68 60 58 65 76 80 79 80 86 92 91 92 102 109 115 120 120 122 130 135 136 141 149 159 163 163 164 166 167 164 157 153 153 153 154 154 150 148 147 144 148 157 157 159
223 204 111 106 139 115 58 42 24 10 2 354 358 75 54 21 34 81 102 113 113 117 121 123 127 115 87 67 53 44 48 52 50 49 49 50 55 56 57 63 65 66 73 78 76 72 75 79 80 80 81 84 90 93 92 94 97 103 110 112 114 116 117 121 130 141 151 156 160 166 169 166 165 163 161 161 162 162 161 160 162 171 188 219 237 244 251
307 187 128 129 168 138 49 24 17 9 345 313 312 326 86 31 33 77 111 120 117 127 136 143 163 156 84 58 47 42 46 52 53 53 56 60 66 67 67 71 72 71 74 79 81 85 88 86 82 81 85 87 88 87 86 87 89 92 93 96 106 114 114 116 125 135 144 150 153 159 163 163 166 168 169 169 171 174 177 179 186 202 219 232 239 242 248
57 232 177 137 139 108 24 357 351 345 331 310 297 232 106 35 33 74 104 117 121 133 136 131 170 231 34 71 69 55 52 59 66 68 66 64 66 67 68 70 70 69 74 79 84 88 91 91 87 86 90 94 93 86 79 78 82 86 83 80 85 96 102 109 121 131 139 147 151 153 155 156 158 163 169 170 173 179 187 193 203 219 227 232 234 235 236
88 57 140 77 80 69 5 341 329 326 323 307 271 210 88 35 48 88 102 114 115 109 97 81 36 7 78 121 106 78 69 68 69 70 67 64 64 64 65 69 70 72 77 79 79 80 81 84 88 89 92 97 98 92 83 75 72 75 81 83 84 89 94 99 103 107 110 118 126 133 139 143 143 146 150 150 151 158 164 169 180 199 216 222 227 231 231
78 99 108 89 90 45 348 330 323 323 314 282 42 23 14 24 70 105 110 103 93 77 69 76 69 66 91 110 108 91 81 71 63 63 62 62 64 63 62 65 68 71 73 73 73 74 74 77 83 85 86 90 93 94 91 83 74 69 74 84 91 97 101 103 102 101 100 100 101 104 110 116 116 113 111 115 124 132 134 135 138 143 151 148 153 181 199
58 114 116 114 121 36 350 332 331 345 341 164 41 342 313 97 96 102 98 90 88 84 82 90 96 94 96 102 98 86 78 67 59 58 61 63 65 64 64 64 65 68 72 74 74 74 72 73 76 80 81 80 81 85 86 84 82 79 77 80 89 97 103 105 106 106 107 107 105 104 106 109 107 100 91 92 104 111 114 116 116 117 117 112 111 119 123
37 85 80 92 122 16 356 341 342 13 17 336 289 313 31 89 89 87 84 83 92 99 98 98 100 99 97 96 92 84 75 67 60 58 59 61 62 64 65 63 60 61 66 70 74 76 75 72 72 75 76 75 76 78 75 72 77 86 89 90 93 97 100 102 105 108 111 112 112 113 114 114 113 109 102 94 91 87 83 83 83 85 88 84 69 56 60
18 65 58 48 45 17 10 14 44 38 21 30 41 53 73 78 81 85 86 88 97 103 105 103 100 98 96 92 88 82 75 69 66 65 63 62 61 62 65 64 60 57 57 61 66 71 77 77 73 70 68 66 67 67 66 67 70 75 83 96 104 106 106 106 107 111 114 116 117 118 119 121 122 121 119 114 109 101 86 74 72 71 68 60 43 30 25
63 76 88 93 77 54 41 45 54 44 42 63 81 86 81 76 83 91 92 94 98 101 102 99 94 92 91 88 86 84 77 71 71 69 65 63 62 62 65 66 64 61 60 61 61 61 66 74 77 74 68 65 62 56 52 57 67 67 66 76 90 98 102 106 110 116 121 123 125 127 130 134 132 127 124 124 124 124 121 117 113 111 107 109 103 77 61
94 80 80 91 84 72 64 60 56 55 65 79 89 92 88 86 91 96 98 100 101 100 98 96 93 91 90 88 86 80 73 73 75 71 64 61 61 62 62 61 60 60 61 62 62 60 58 57 63 71 71 68 61 52 45 45 53 61 64 67 75 81 86 89 96 106 116 121 122 128 137 144 145 143 144 146 147 145 144 141 133 124 123 123 121 121 124
108 72 68 75 76 76 77 74 69 69 78 88 93 95 96 96 97 97 97 98 97 96 94 92 89 87 86 85 84 78 71 69 69 66 63 60 59 60 59 58 58 59 61 64 64 62 59 56 57 62 67 67 62 55 48 43 44 51 60 63 63 66 71 76 78 85 98 106 105 109 115 123 145 167 176 173 169 165 163 161 155 150 149 146 141 140 138
92 95 94 84 76 75 77 79 79 80 87 94 95 96 99 100 98 97 96 95 93 94 92 89 86 82 77 78 82 80 73 69 64 63 65 63 62 63 64 65 65 61 59 62 64 63 62 61 58 57 60 62 60 57 55 50 44 46 55 63 65 60 59 63 66 67 74 80 80 85 90 95 114 139 145 148 163 175 180 184 185 184 183 178 174 174 169
102 111 111 99 83 73 70 78 90 96 99 100 99 99 101 102 101 101 100 97 94 93 90 86 84 81 75 74 78 77 72 70 67 63 64 63 62 65 69 74 74 67 61 60 59 59 59 58 57 55 54 56 57 54 53 54 51 46 46 58 76 80 72 66 62 62 67 68 62 59 62 69 76 77 75 88 114 141 157 175 191 200 206 206 205 209 208
102 104 106 101 92 82 81 89 99 106 108 106 104 105 106 107 107 107 107 106 104 100 95 91 87 83 77 72 71 68 66 67 67 64 63 62 58 57 63 68 71 73 74 70 67 65 62 61 62 60 55 56 58 55 54 60 66 64 54 48 58 73 80 77 69 65 68 72 70 60 51 53 61 61 58 63 73 90 115 136 158 174 189 205 215 228 234
95 96 96 97 100 104 105 105 106 109 108 105 102 103 105 107 111 112 112 112 109 103 101 97 89 84 79 72 68 68 64 64 68 69 69 70 69 66 63 62 65 71 74 72 72 68 64 66 68 64 60 58 51 47 53 61 71 86 88 73 58 57 64 71 71 70 72 72 73 73 64 50 49 49 51 57 61 63 72 91 105 117 137 167 194 225 247
98 96 97 99 102 104 105 107 107 106 106 104 102 102 102 102 103 103 102 101 97 91 91 91 86 84 81 72 67 67 64 65 72 73 68 69 72 73 70 67 69 73 73 72 73 69 70 75 71 62 64 61 45 40 43 42 45 64 79 85 82 70 61 59 57 60 70 72 68 73 76 70 61 55 49 49 53 54 55 59 66 75 82 87 88 87 86
100 99 98 98 99 100 99 99 99 99 101 102 100 100 101 100 97 94 92 91 89 86 84 79 75 77 78 72 70 68 64 67 79 75 67 71 71 70 74 74 70 72 75 73 70 68 71 75 70 62 62 57 49 47 38 25 29 41 47 57 80 91 81 67 56 51 58 59 58 65 67 63 73 87 77 59 53 51 49 51 59 69 74 79 81 81 84
105 109 108 104 102 102 101 101 100 98 99 101 99 99 104 104 99 93 90 88 91 92 84 72 67 66 64 59 57 54 53 73 81 59 50 68 86 75 70 70 67 72 79 78 82 85 78 67 59 58 56 51 51 54 44 30 34 40 34 34 47 69 72 66 61 60 59 55 51 54 52 44 50 80 103 94 74 61 50 46 53 63 66 68 71 73 75
104 110 111 110 107 104 104 108 108 105 104 104 102 106 114 112 100 92 92 97 103 99 78 61 58 62 59 50 43 41 46 72 105 66 53 63 81 75 69 67 64 64 67 70 85 89 75 62 57 54 51 49 48 48 44 38 44 54 46 34 32 39 49 53 49 48 64 82 76 65 61 51 40 52 84 90 77 79 79 54 48 60 62 55 56 64 71
102 105 105 104 103 104 107 113 116 116 116 111 106 110 116 112 98 88 87 96 108 108 77 48 36 35 41 31 28 42 49 50 57 63 58 56 63 74 85 81 64 58 66 76 84 69 51 54 61 49 42 43 42 42 44 38 33 44 61 61 57 57 61 62 50 28 31 85 110 106 98 80 38 36 70 88 80 83 91 81 54 64 61 51 55 70 76
100 100 99 101 106 108 107 106 108 110 111 113 117 119 114 104 99 94 84 81 89 92 74 55 47 47 46 34 26 35 42 40 42 49 45 39 54 91 100 86 70 62 66 75 75 50 40 51 57 47 42 37 31 35 44 42 37 31 24 24 28 27 44 86 74 44 33 64 95 105 100 89 63 46 62 84 106 114 111 108 107 98 74 57 63 72 73
102 102 102 104 109 109 105 103 104 103 102 105 111 110 94 83 87 90 81 73 74 72 67 61 55 48 45 46 41 32 29 37 47 46 32 33 60 120 95 71 50 32 64 76 59 27 34 38 36 46 47 32 24 28 35 40 45 29 4 5 16 19 28 95 97 69 44 57 80 87 80 73 86 94 71 64 87 105 104 104 107 105 93 89 83 75 73
106 108 109 110 111 108 105 106 106 100 94 90 89 85 77 67 66 70 72 70 63 55 49 50 54 52 48 44 37 28 30 40 44 38 31 27 349 248 125 76 347 342 19 57 352 316 301 320 3 40 38 17 14 19 28 43 50 16 350 357 13 18 27 70 88 61 43 44 62 78 74 57 69 98 89 78 91 97 90 102 117 117 110 122 130 131 121
113 114 117 117 115 111 110 113 111 103 95 84 74 71 66 55 51 56 60 52 50 72 49 20 33 51 51 32 25 27 33 29 22 21 10 327 327 330 319 282 278 299 324 330 310 300 293 287 299 334 349 358 6 1 6 39 56 23 1 359 5 13 29 58 68 47 46 50 50 69 89 81 75 85 88 89 102 116 110 114 118 105 92 120 152 172 161
120 119 118 119 121 119 116 116 111 104 99 87 72 64 56 48 43 41 39 42 70 170 274 341 351 7 85 87 27 359 355 355 357 351 278 301 330 339 329 294 243 237 264 284 279 283 291 283 282 299 306 312 345 342 344 19 38 30 20 8 348 2 32 53 57 50 54 47 31 45 103 111 103 107 105 92 91 109 114 112 111 97 67 97 126 131 132
112 116 115 111 113 115 115 111 103 96 94 86 69 56 48 41 32 26 28 22 342 314 235 169 170 211 196 225 310 328 342 355 355 323 297 306 321 327 326 321 246 228 247 264 262 265 272 265 264 278 280 276 296 306 310 356 22 28 18 8 2 18 32 34 37 44 36 20 28 53 91 112 117 124 122 107 103 117 115 112 116 113 104 118 126 128 131
119 125 120 109 105 107 108 105 99 94 89 80 66 54 48 43 40 36 26 0 349 214 180 184 210 252 262 295 325 345 8 13 350 332 325 326 330 330 332 336 292 259 263 265 260 262 265 260 255 258 259 263 278 282 277 308 357 5 354 6 24 21 9 6 35 64 54 51 65 61 53 103 159 143 124 106 110 129 125 124 128 121 108 109 117 120 124
134 135 127 118 116 114 107 104 102 94 82 73 66 59 54 50 42 38 30 14 22 151 194 229 272 291 316 354 12 29 33 21 6 357 350 341 342 351 352 340 304 273 265 263 259 258 258 255 253 255 257 260 266 270 264 254 248 313 321 336 1 338 340 354 63 56 32 35 24 1 359 28 151 144 120 108 121 141 117 118 130 132 129 117 106 106 109
146 140 132 128 128 123 113 108 106 95 80 74 65 53 51 47 35 28 23 16 48 140 244 299 0 98 93 64 65 66 55 52 43 27 15 9 3 358 349 341 339 327 293 286 280 263 255 255 257 262 265 261 257 263 267 259 234 252 299 325 343 333 329 333 352 5 18 33 3 357 10 50 91 100 88 98 136 163 142 135 146 148 144 140 123 113 115
144 140 138 138 138 133 126 118 110 93 79 82 73 57 49 43 31 31 23 16 74 125 348 356 68 96 86 61 41 4 18 53 42 23 23 24 14 357 343 341 358 355 318 314 314 288 272 267 261 261 265 264 255 253 260 268 265 245 233 263 300 305 305 315 323 340 42 19 350 345 359 40 72 81 84 125 154 167 163 157 159 157 154 153 151 151 154
135 141 145 145 142 138 135 130 120 104 84 73 61 54 52 39 26 29 22 22 117 142 149 136 135 148 298 318 313 301 294 319 349 351 1 11 6 356 344 334 324 274 269 290 304 283 280 282 277 270 268 267 258 248 250 261 266 245 216 226 266 272 270 287 291 273 285 308 323 323 300 314 42 72 120 151 157 174 190 181 168 162 163 160 152 153 162
136 138 141 145 146 146 147 147 138 117 107 65 22 24 27 10 357 3 3 355 190 202 217 198 199 247 281 297 308 305 291 295 317 324 323 331 348 351 341 333 327 235 224 258 308 299 288 285 284 281 275 265 256 249 248 257 262 247 219 219 247 261 265 272 274 273 279 285 299 331 299 218 188 146 176 182 177 180 183 173 164 161 168 174 172 175 184
136 139 143 148 149 150 154 158 155 147 158 207 5 5 350 319 308 306 303 284 244 234 243 243 244 264 289 303 307 308 301 295 300 304 301 302 312 325 332 340 3 124 187 257 314 321 313 305 296 287 274 260 252 249 248 256 262 253 233 229 246 258 263 265 268 276 273 268 288 321 313 207 202 267 231 206 206 206 160 137 151 173 190 192 187 187 195
138 146 156 155 150 156 175 190 196 219 258 285 303 307 294 282 282 282 281 276 262 251 254 259 259 265 280 291 290 288 289 288 285 285 289 292 290 294 312 333 352 359 291 307 320 323 323 323 321 313 296 266 244 240 244 253 257 246 231 237 246 251 255 256 261 268 267 263 275 283 255 232 255 302 257 215 219 226 223 200 194 201 201 193 189 195 203
145 152 159 157 155 163 178 196 216 239 264 277 286 296 303 294 284 277 271 268 264 259 259 263 264 267 273 279 280 282 287 288 286 286 288 289 287 280 275 285 294 293 299 312 322 326 319 311 311 310 305 295 269 244 242 247 248 238 235 241 245 247 250 253 260 267 264 262 268 270 260 258 269 263 239 238 236 228 226 226 214 207 207 208 210 218 222
154 156 158 158 161 172 188 207 224 241 261 267 275 296 310 299 285 277 272 269 267 262 260 261 261 264 269 271 275 280 284 286 289 292 290 290 293 287 263 252 260 272 287 309 331 347 318 292 291 286 290 298 294 271 249 241 236 239 244 243 241 246 251 252 257 264 263 260 262 263 260 261 263 254 250 252 245 235 239 241 228 219 223 226 222 218 215
167 165 151 130 133 159 185 217 232 243 264 269 276 288 290 281 272 269 272 274 271 265 263 263 262 265 269 270 271 276 281 283 288 294 293 293 303 304 281 261 260 266 285 314 346 9 283 290 302 305 302 304 303 286 260 240 231 240 252 251 245 247 252 251 254 262 264 262 261 261 258 257 258 257 256 253 249 247 248 241 231 229 234 233 227 221 216
171 164 151 150 175 186 201 294 341 330 295 285 284 284 281 277 278 279 279 278 275 270 267 265 263 265 269 271 272 277 280 282 286 289 285 281 281 277 263 262 268 272 283 306 337 350 272 286 304 314 315 320 328 317 278 243 230 238 256 257 249 245 248 252 256 261 264 262 259 257 257 257 257 255 253 250 251 255 252 238 225 224 230 233 229 223 218
172 168 173 191 203 205 222 317 280 248 246 255 270 278 279 280 285 287 285 282 280 276 273 271 269 268 270 273 274 277 283 288 292 294 292 284 274 265 262 271 279 283 287 297 306 302 293 299 311 321 323 323 327 329 311 260 241 249 262 264 255 248 249 253 256 260 264 266 263 259 257 255 252 251 251 252 255 257 255 249 239 228 222 226 232 231 226
176 174 173 172 176 205 266 248 242 246 250 257 271 281 283 280 281 284 284 284 283 279 276 274 271 269 270 272 273 275 281 285 288 293 299 296 279 266 266 270 273 277 286 293 294 297 306 314 320 330 334 329 316 307 302 281 260 261 266 268 266 262 261 263 265 266 267 267 265 262 261 261 259 254 251 252 256 256 254 257 258 251 234 223 228 236 237
179 175 165 168 194 223 240 237 237 243 250 265 284 302 314 306 292 290 289 285 283 283 280 278 277 277 277 277 275 274 276 281 285 288 294 298 289 279 277 276 273 278 290 295 291 295 304 306 302 309 320 325 318 306 293 276 263 264 266 265 261 259 258 260 265 266 263 262 261 259 257 257 258 256 251 250 253 256 257 263 269 269 258 237 228 233 239
186 196 205 206 214 235 265 277 274 280 300 309 308 322 334 322 301 299 302 299 295 293 290 290 291 289 284 282 282 281 281 283 284 283 285 292 293 289 284 276 270 277 289 288 279 280 288 291 292 297 304 309 314 315 307 285 264 263 267 266 263 259 253 250 253 256 254 253 255 255 252 256 263 260 252 248 249 253 257 261 266 268 266 254 238 234 241
195 208 216 219 237 269 284 274 270 294 325 325 310 311 317 307 298 301 305 305 303 300 298 300 301 297 291 289 290 290 290 287 284 284 288 295 294 287 281 276 274 280 289 292 291 288 285 285 289 294 295 294 304 316 318 307 283 272 269 267 268 266 259 252 252 254 254 255 255 252 249 254 260 252 239 238 245 249 250 254 259 262 263 263 255 248 250
201 209 215 226 260 289 280 251 243 269 305 304 297 305 318 315 309 304 303 306 309 308 303 301 301 299 298 296 291 290 298 304 301 300 301 295 282 276 281 286 288 290 295 298 297 294 289 288 292 293 290 291 302 312 313 306 301 297 287 275 270 270 267 262 259 256 257 261 265 260 249 246 250 249 243 243 249 251 248 247 251 254 258 263 267 265 260